VK6JI-11 Weather Reports


time (UTC)temp
C
wind
direction
speed
KPH
gust
KPH
rain 1hr
cm
rain 24hr
cm
rain mn
cm
humidity
%
barometer
mb
20260509013633 18 55 8.0 16.1 0.00 0.00 0.00 52 1027.1
20260509013433 18 62 8.0 16.1 0.00 0.00 0.00 53 1027.1
20260509013232 18 61 6.4 16.1 0.00 0.00 0.00 53 1027.1
20260509013030 18 75 6.4 16.1 0.00 0.00 0.00 53 1027.2
20260509012830 18 41 6.4 16.1 0.00 0.00 0.00 54 1027.2
20260509012630 18 55 6.4 16.1 0.00 0.00 0.00 54 1027.2
20260509012426 18 58 6.4 19.3 0.00 0.00 0.00 54 1027.2
20260509012226 18 55 8.0 19.3 0.00 0.00 0.00 54 1027.2
20260509012025 18 45 6.4 19.3 0.00 0.00 0.00 54 1027.2
20260509011826 17 75 8.0 19.3 0.00 0.00 0.00 54 1027.2
20260509011624 17 65 6.4 19.3 0.00 0.00 0.00 55 1027.3
20260509011424 17 87 8.0 16.1 0.00 0.00 0.00 56 1027.2
20260509011223 17 37 3.2 16.1 0.00 0.00 0.00 57 1027.4
20260509011023 17 354 6.4 16.1 0.00 0.00 0.00 57 1027.4
20260509010823 17 51 4.8 14.5 0.00 0.00 0.00 58 1027.3
20260509010622 17 42 3.2 14.5 0.00 0.00 0.00 58 1027.4
20260509010422 16 27 4.8 14.5 0.00 0.00 0.00 58 1027.5
20260509010221 16 282 6.4 14.5 0.00 0.00 0.00 58 1027.5
20260509010022 16 66 4.8 11.3 0.00 0.00 0.00 60 1027.5
20260509005814 16 77 6.4 14.5 0.00 0.00 0.00 59 1027.5
20260509005614 16 59 6.4 14.5 0.00 0.00 0.00 60 1027.5
20260509005414 16 52 4.8 14.5 0.00 0.00 0.00 60 1027.5
20260509005213 16 62 6.4 17.7 0.00 0.00 0.00 60 1027.5
20260509005010 16 79 6.4 17.7 0.00 0.00 0.00 61 1027.4
20260509004809 15 35 3.2 17.7 0.00 0.00 0.00 61 1027.5
20260509004609 15 39 8.0 17.7 0.00 0.00 0.00 61 1027.4
20260509004408 15 72 4.8 9.7 0.00 0.00 0.00 62 1027.5
20260509004209 15 56 4.8 9.7 0.00 0.00 0.00 63 1027.4
20260509004008 15 72 4.8 11.3 0.00 0.00 0.00 62 1027.4
20260509003807 15 76 4.8 11.3 0.00 0.00 0.00 63 1027.3
20260509003607 15 51 6.4 11.3 0.00 0.00 0.00 63 1027.3
20260509003406 15 63 6.4 11.3 0.00 0.00 0.00 63 1027.2
20260509003206 15 61 6.4 8.0 0.00 0.00 0.00 63 1027.2
20260509003006 15 73 4.8 8.0 0.00 0.00 0.00 63 1027.2
20260509002805 15 76 4.8 8.0 0.00 0.00 0.00 64 1027.1
20260509002604 14 61 4.8 8.0 0.00 0.00 0.00 64 1027.0
20260509002404 14 86 3.2 8.0 0.00 0.00 0.00 64 1027.0
20260509002203 14 68 3.2 8.0 0.00 0.00 0.00 64 1027.0
20260509002002 14 80 4.8 8.0 0.00 0.00 0.00 64 1027.0
20260509001802 14 75 4.8 8.0 0.00 0.00 0.00 64 1027.0
20260509001602 14 77 4.8 8.0 0.00 0.00 0.00 64 1027.1
20260509001403 14 62 4.8 8.0 0.00 0.00 0.00 64 1027.1
20260509001202 14 63 4.8 8.0 0.00 0.00 0.00 65 1027.1
20260509001002 14 69 3.2 6.4 0.00 0.00 0.00 65 1027.2
20260509000801 13 61 4.8 6.4 0.00 0.00 0.00 65 1027.2
20260509000600 13 62 3.2 8.0 0.00 0.00 0.00 65 1027.2
20260509000400 13 68 3.2 8.0 0.00 0.00 0.00 65 1027.2
20260509000159 13 66 3.2 8.0 0.00 0.00 0.00 65 1027.2
20260509000000 13 55 4.8 8.0 0.00 0.00 0.00 65 1027.1
20260508235758 13 77 4.8 8.0 0.00 0.00 0.00 66 1027.1
20260508235559 13 49 3.2 8.0 0.00 0.00 0.00 66 1027.1
20260508235358 13 32 3.2 8.0 0.00 0.00 0.00 66 1027.0
20260508235157 13 73 3.2 8.0 0.00 0.00 0.00 66 1027.0
20260508234957 13 86 4.8 8.0 0.00 0.00 0.00 66 1027.1
20260508234756 13 55 3.2 8.0 0.00 0.00 0.00 66 1027.1
20260508234556 13 44 3.2 8.0 0.00 0.00 0.00 66 1027.2
20260508234355 13 44 3.2 6.4 0.00 0.00 0.00 66 1027.1
20260508234152 13 58 1.6 6.4 0.00 0.00 0.00 66 1027.2
20260508233952 13 58 1.6 6.4 0.00 0.00 0.00 66 1027.2
20260508233751 13 41 1.6 6.4 0.00 0.00 0.00 66 1027.1
20260508233551 13 39 1.6 6.4 0.00 0.00 0.00 66 1027.1
20260508233347 13 39 3.2 11.3 0.00 0.00 0.00 66 1027.0
20260508233147 13 61 3.2 11.3 0.00 0.00 0.00 66 1027.1
20260508232947 13 59 3.2 11.3 0.00 0.00 0.00 66 1027.0
20260508232746 13 65 3.2 11.3 0.00 0.00 0.00 66 1027.0
20260508232545 13 73 4.8 11.3 0.00 0.00 0.00 65 1026.8
20260508232346 13 92 3.2 8.0 0.00 0.00 0.00 65 1026.8
20260508232145 13 77 4.8 8.0 0.00 0.00 0.00 65 1026.8
20260508231945 13 73 3.2 6.4 0.00 0.00 0.00 65 1026.9
20260508231744 13 73 3.2 8.0 0.00 0.00 0.00 65 1026.9
20260508231544 13 72 4.8 8.0 0.00 0.00 0.00 65 1026.9
20260508231343 13 107 4.8 8.0 0.00 0.00 0.00 65 1026.9
20260508231142 13 48 4.8 8.0 0.00 0.00 0.00 65 1026.9
20260508230943 13 45 4.8 8.0 0.00 0.00 0.00 65 1026.8
20260508230742 13 66 3.2 8.0 0.00 0.00 0.00 65 1026.8
20260508230541 13 58 4.8 8.0 0.00 0.00 0.00 65 1026.8
20260508230341 13 58 3.2 6.4 0.00 0.00 0.00 65 1026.8
20260508230140 13 58 3.2 6.4 0.00 0.00 0.00 65 1026.9
20260508225940 13 31 3.2 6.4 0.00 0.00 0.00 64 1026.8
20260508225734 13 28 1.6 6.4 0.00 0.00 0.00 64 1026.9
20260508225533 13 28 3.2 6.4 0.00 0.00 0.00 64 1026.8
20260508225333 13 28 1.6 6.4 0.00 0.00 0.00 64 1026.8
20260508225133 13 28 3.2 6.4 0.00 0.00 0.00 64 1026.8
20260508224934 13 10 3.2 8.0 0.00 0.00 0.00 64 1026.8
20260508224733 13 37 3.2 8.0 0.00 0.00 0.00 64 1026.7
20260508224533 13 49 4.8 8.0 0.00 0.00 0.00 64 1026.8
20260508224332 13 52 4.8 8.0 0.00 0.00 0.00 64 1026.7
20260508224132 13 56 6.4 8.0 0.00 0.00 0.00 64 1026.6
20260508223933 13 25 4.8 8.0 0.00 0.00 0.00 64 1026.7
20260508223732 13 56 6.4 8.0 0.00 0.00 0.00 64 1026.7
20260508223532 13 63 4.8 6.4 0.00 0.00 0.00 64 1026.8
20260508223332 13 52 4.8 8.0 0.00 0.00 0.00 64 1026.7
20260508223132 13 53 3.2 8.0 0.00 0.00 0.00 64 1026.7
20260508222931 13 52 3.2 8.0 0.00 0.00 0.00 63 1026.7
20260508222733 13 52 3.2 9.7 0.00 0.00 0.00 63 1026.7
20260508222532 13 52 3.2 9.7 0.00 0.00 0.00 63 1026.6
20260508222332 13 62 4.8 9.7 0.00 0.00 0.00 63 1026.6
20260508222132 13 80 3.2 9.7 0.00 0.00 0.00 63 1026.6
20260508221932 13 69 4.8 9.7 0.00 0.00 0.00 63 1026.6
20260508221731 13 65 4.8 14.5 0.00 0.00 0.00 63 1026.5
20260508221531 13 61 4.8 14.5 0.00 0.00 0.00 63 1026.5
20260508221333 13 48 4.8 14.5 0.00 0.00 0.00 63 1026.7
20260508221132 13 63 4.8 14.5 0.00 0.00 0.00 63 1026.7
20260508220932 14 48 4.8 14.5 0.00 0.00 0.00 62 1026.7
20260508220731 14 48 4.8 9.7 0.00 0.00 0.00 62 1026.6
20260508220531 14 52 4.8 9.7 0.00 0.00 0.00 62 1026.6
20260508220331 14 41 4.8 9.7 0.00 0.00 0.00 62 1026.6
20260508220131 14 51 4.8 9.7 0.00 0.00 0.00 62 1026.6
20260508215932 14 45 4.8 9.7 0.00 0.00 0.00 62 1026.6
20260508215731 14 63 3.2 9.7 0.00 0.00 0.00 62 1026.6
20260508215531 14 65 4.8 9.7 0.00 0.00 0.00 61 1026.6
20260508215331 14 44 4.8 11.3 0.00 0.00 0.00 61 1026.6
20260508215131 14 62 4.8 11.3 0.00 0.00 0.00 62 1026.6
20260508214931 14 89 6.4 11.3 0.00 0.00 0.00 61 1026.6
20260508214731 14 65 4.8 11.3 0.00 0.00 0.00 61 1026.6
20260508214532 14 39 6.4 11.3 0.00 0.00 0.00 61 1026.6
20260508214331 14 56 6.4 11.3 0.00 0.00 0.00 61 1026.6
20260508214131 14 32 4.8 16.1 0.00 0.00 0.00 61 1026.6
20260508213931 14 38 6.4 16.1 0.00 0.00 0.00 61 1026.5
20260508213730 14 56 8.0 16.1 0.00 0.00 0.00 61 1026.6
20260508213530 14 58 4.8 16.1 0.00 0.00 0.00 61 1026.6
20260508213331 14 39 8.0 16.1 0.00 0.00 0.00 61 1026.5
20260508213131 14 55 6.4 11.3 0.00 0.00 0.00 61 1026.5
20260508212930 14 68 4.8 14.5 0.00 0.00 0.00 61 1026.5
20260508212730 14 34 4.8 14.5 0.00 0.00 0.00 61 1026.5
20260508212531 14 49 4.8 14.5 0.00 0.00 0.00 60 1026.4
20260508212332 14 58 4.8 14.5 0.00 0.00 0.00 60 1026.4
20260508212130 15 45 6.4 16.1 0.00 0.00 0.00 60 1026.4
20260508211930 15 44 6.4 16.1 0.00 0.00 0.00 60 1026.3
20260508211730 15 10 4.8 20.9 0.00 0.00 0.00 60 1026.2
20260508211530 15 21 6.4 20.9 0.00 0.00 0.00 60 1026.2
20260508211330 15 92 6.4 20.9 0.00 0.00 0.00 60 1026.2
20260508211131 15 53 4.8 20.9 0.00 0.00 0.00 60 1026.1
20260508210930 15 59 6.4 20.9 0.00 0.00 0.00 60 1026.1
20260508210730 15 63 4.8 17.7 0.00 0.00 0.00 60 1026.1
20260508210530 15 75 6.4 17.7 0.00 0.00 0.00 60 1026.1
20260508210331 15 80 6.4 17.7 0.00 0.00 0.00 60 1026.0
20260508210130 15 65 6.4 17.7 0.00 0.00 0.00 60 1026.0
20260508205930 15 45 6.4 17.7 0.00 0.00 0.00 60 1026.0
20260508205729 15 56 6.4 14.5 0.00 0.00 0.00 60 1026.0
20260508205530 15 76 4.8 14.5 0.00 0.00 0.00 60 1026.0
20260508205329 15 46 4.8 14.5 0.00 0.00 0.00 60 1026.0
20260508205129 15 41 4.8 14.5 0.00 0.00 0.00 60 1026.0
20260508204931 15 51 4.8 8.0 0.00 0.00 0.00 59 1026.0
20260508204730 15 73 4.8 8.0 0.00 0.00 0.00 59 1026.0
20260508204530 15 73 4.8 9.7 0.00 0.00 0.00 59 1026.0
20260508204329 15 66 3.2 9.7 0.00 0.00 0.00 59 1025.9
20260508204130 15 59 3.2 9.7 0.00 0.00 0.00 59 1025.9
20260508203929 15 61 3.2 11.3 0.00 0.00 0.00 59 1025.9
20260508203729 15 51 4.8 11.3 0.00 0.00 0.00 59 1025.8
20260508203530 15 84 6.4 14.5 0.00 0.00 0.00 59 1025.9
20260508203330 15 72 3.2 14.5 0.00 0.00 0.00 59 1025.8
20260508203129 15 76 4.8 14.5 0.00 0.00 0.00 59 1025.8
20260508202929 15 48 4.8 14.5 0.00 0.00 0.00 59 1025.7
20260508202729 15 45 6.4 14.5 0.00 0.00 0.00 58 1025.8
20260508202530 15 39 6.4 14.5 0.00 0.00 0.00 58 1025.7
20260508202329 15 68 6.4 14.5 0.00 0.00 0.00 58 1025.8
20260508202129 15 79 6.4 14.5 0.00 0.00 0.00 58 1025.7
20260508201929 15 79 6.4 8.0 0.00 0.00 0.00 58 1025.7
20260508201729 15 28 6.4 9.7 0.00 0.00 0.00 58 1025.7
20260508201504 15 28 6.4 11.3 0.00 0.00 0.00 58 1025.7
20260508201303 15 28 6.4 11.3 0.00 0.00 0.00 58 1025.6
20260508201104 15 28 6.4 11.3 0.00 0.00 0.00 58 1025.6
20260508200902 15 56 4.8 16.1 0.00 0.00 0.00 58 1025.6
20260508200702 15 38 6.4 16.1 0.00 0.00 0.00 58 1025.6
20260508200504 15 48 6.4 16.1 0.00 0.00 0.00 58 1025.5
20260508200302 15 52 6.4 16.1 0.00 0.00 0.00 57 1025.5
20260508200040 15 68 4.8 16.1 0.00 0.00 0.00 57 1025.5
20260508195827 15 97 8.0 11.3 0.00 0.00 0.00 57 1025.5
20260508195629 15 34 6.4 11.3 0.00 0.00 0.00 57 1025.5
20260508195428 15 62 6.4 11.3 0.00 0.00 0.00 57 1025.5
20260508195228 15 62 6.4 16.1 0.00 0.00 0.00 57 1025.5
20260508195028 15 61 6.4 16.1 0.00 0.00 0.00 57 1025.4
20260508194828 15 79 6.4 16.1 0.00 0.00 0.00 57 1025.4
20260508194627 15 61 6.4 17.7 0.00 0.00 0.00 57 1025.4
20260508194427 15 66 6.4 17.7 0.00 0.00 0.00 57 1025.4
20260508194229 15 52 4.8 17.7 0.00 0.00 0.00 56 1025.4
20260508194028 15 77 6.4 22.5 0.00 0.00 0.00 56 1025.4
20260508193827 15 49 8.0 22.5 0.00 0.00 0.00 56 1025.3
20260508193628 15 55 8.0 22.5 0.00 0.00 0.00 56 1025.3
20260508193424 16 65 6.4 22.5 0.00 0.00 0.00 56 1025.3
20260508193224 16 49 8.0 22.5 0.00 0.00 0.00 56 1025.3
20260508193024 15 76 8.0 14.5 0.00 0.00 0.00 56 1025.3
20260508192824 16 63 6.4 14.5 0.00 0.00 0.00 56 1025.2
20260508192626 16 44 8.0 14.5 0.00 0.00 0.00 56 1025.2
20260508192425 16 46 8.0 14.5 0.00 0.00 0.00 56 1025.2
20260508192224 16 52 6.4 14.5 0.00 0.00 0.00 56 1025.2
20260508192023 16 56 6.4 14.5 0.00 0.00 0.00 56 1025.2
20260508191823 16 72 8.0 14.5 0.00 0.00 0.00 56 1025.2
20260508191622 16 63 8.0 11.3 0.00 0.00 0.00 56 1025.2
20260508191419 16 42 6.4 11.3 0.00 0.00 0.00 56 1025.3
20260508191218 16 87 6.4 11.3 0.00 0.00 0.00 56 1025.3
20260508191018 16 48 8.0 11.3 0.00 0.00 0.00 56 1025.2
20260508190818 16 52 4.8 11.3 0.00 0.00 0.00 56 1025.2
20260508190617 16 48 8.0 11.3 0.00 0.00 0.00 56 1025.2
20260508190416 16 62 6.4 11.3 0.00 0.00 0.00 56 1025.1
20260508190216 16 111 4.8 11.3 0.00 0.00 0.00 56 1025.3
20260508190017 16 44 6.4 11.3 0.00 0.00 0.00 56 1025.2
20260508185806 16 63 6.4 11.3 0.00 0.00 0.00 56 1025.3
20260508185609 16 62 6.4 11.3 0.00 0.00 0.00 56 1025.3
20260508185406 16 42 8.0 11.3 0.00 0.00 0.00 56 1025.3
20260508185205 16 72 4.8 14.5 0.00 0.00 0.00 56 1025.3
20260508185005 16 84 6.4 14.5 0.00 0.00 0.00 56 1025.4
20260508184805 16 84 6.4 14.5 0.00 0.00 0.00 56 1025.4
20260508184606 16 89 6.4 14.5 0.00 0.00 0.00 56 1025.3
20260508184401 16 53 6.4 14.5 0.00 0.00 0.00 56 1025.4
20260508184202 16 37 4.8 14.5 0.00 0.00 0.00 56 1025.4
20260508184003 16 35 4.8 14.5 0.00 0.00 0.00 56 1025.4
20260508183803 16 35 8.0 14.5 0.00 0.00 0.00 56 1025.4
20260508183602 16 48 8.0 14.5 0.00 0.00 0.00 55 1025.5
20260508183402 16 70 4.8 11.3 0.00 0.00 0.00 55 1025.4
20260508183202 16 75 6.4 14.5 0.00 0.00 0.00 55 1025.4
20260508183002 16 65 6.4 14.5 0.00 0.00 0.00 55 1025.5
20260508182802 16 32 6.4 14.5 0.00 0.00 0.00 55 1025.5
20260508182539 16 56 4.8 14.5 0.00 0.00 0.00 55 1025.6
20260508182339 16 32 6.4 14.5 0.00 0.00 0.00 55 1025.5
20260508182138 16 42 6.4 11.3 0.00 0.00 0.00 55 1025.5
20260508181938 16 42 6.4 14.5 0.00 0.00 0.00 55 1025.6
20260508181738 16 58 6.4 14.5 0.00 0.00 0.00 55 1025.5
20260508181534 16 55 6.4 14.5 0.00 0.00 0.00 55 1025.5
20260508181334 16 62 6.4 14.5 0.00 0.00 0.00 55 1025.5
20260508181134 16 62 6.4 14.5 0.00 0.00 0.00 55 1025.4
20260508180933 16 68 6.4 14.5 0.00 0.00 0.00 55 1025.5
20260508180731 16 51 6.4 14.5 0.00 0.00 0.00 55 1025.6
20260508180534 16 38 4.8 17.7 0.00 0.00 0.00 55 1025.4
20260508180331 16 61 6.4 17.7 0.00 0.00 0.00 55 1025.4
20260508180131 16 55 4.8 17.7 0.00 0.00 0.00 55 1025.4
20260508175931 16 84 6.4 17.7 0.00 0.00 0.00 55 1025.4
20260508175730 16 61 8.0 17.7 0.00 0.00 0.00 55 1025.4
20260508175531 16 73 6.4 14.5 0.00 0.00 0.00 54 1025.4
20260508175331 16 66 4.8 14.5 0.00 0.00 0.00 54 1025.5
20260508175132 16 70 8.0 14.5 0.00 0.00 0.00 54 1025.5
20260508174931 16 58 4.8 14.5 0.00 0.00 0.00 54 1025.5
20260508174732 16 31 6.4 14.5 0.00 0.00 0.00 54 1025.6
20260508174531 16 66 4.8 14.5 0.00 0.00 0.00 54 1025.5
20260508174332 16 76 6.4 14.5 0.00 0.00 0.00 54 1025.5
20260508174132 16 51 6.4 14.5 0.00 0.00 0.00 54 1025.4
20260508173931 16 83 4.8 9.7 0.00 0.00 0.00 54 1025.4
20260508173730 16 72 4.8 11.3 0.00 0.00 0.00 53 1025.4
20260508173530 16 39 4.8 11.3 0.00 0.00 0.00 53 1025.4
20260508173327 16 61 4.8 14.5 0.00 0.00 0.00 53 1025.4
20260508173127 16 68 4.8 14.5 0.00 0.00 0.00 53 1025.3
20260508172926 16 96 6.4 14.5 0.00 0.00 0.00 53 1025.2
20260508172726 16 73 6.4 16.1 0.00 0.00 0.00 53 1025.2
20260508172526 16 73 4.8 16.1 0.00 0.00 0.00 53 1025.3
20260508172325 16 72 4.8 17.7 0.00 0.00 0.00 53 1025.2
20260508172125 17 52 4.8 17.7 0.00 0.00 0.00 53 1025.2
20260508171925 17 68 8.0 17.7 0.00 0.00 0.00 53 1025.3
20260508171726 17 69 6.4 17.7 0.00 0.00 0.00 53 1025.2
20260508171524 17 61 8.0 17.7 0.00 0.00 0.00 53 1025.3
20260508171324 17 56 4.8 14.5 0.00 0.00 0.00 53 1025.3
20260508171124 17 68 6.4 14.5 0.00 0.00 0.00 53 1025.3
20260508170924 17 61 8.0 14.5 0.00 0.00 0.00 53 1025.3
20260508170724 16 59 6.4 14.5 0.00 0.00 0.00 53 1025.3
20260508170540 16 55 6.4 14.5 0.00 0.00 0.00 53 1025.3
20260508170324 17 46 4.8 14.5 0.00 0.00 0.00 53 1025.3
20260508170123 17 34 4.8 14.5 0.00 0.00 0.00 53 1025.4
20260508165924 17 75 8.0 14.5 0.00 0.00 0.00 53 1025.3
20260508165724 17 70 4.8 14.5 0.00 0.00 0.00 53 1025.4
20260508165524 17 58 4.8 14.5 0.00 0.00 0.00 53 1025.4
20260508165324 17 63 4.8 14.5 0.00 0.00 0.00 53 1025.4
20260508165124 17 46 4.8 14.5 0.00 0.00 0.00 53 1025.5
20260508164925 17 51 4.8 11.3 0.00 0.00 0.00 53 1025.5
20260508164724 17 69 4.8 11.3 0.00 0.00 0.00 53 1025.5
20260508164524 17 73 4.8 11.3 0.00 0.00 0.00 53 1025.5
20260508164324 17 65 6.4 11.3 0.00 0.00 0.00 53 1025.5
20260508164124 17 65 4.8 8.0 0.00 0.00 0.00 53 1025.5
20260508163924 17 79 4.8 8.0 0.00 0.00 0.00 52 1025.6
20260508163724 17 53 4.8 8.0 0.00 0.00 0.00 52 1025.5
20260508163525 17 55 4.8 8.0 0.00 0.00 0.00 52 1025.5
20260508163323 17 55 3.2 9.7 0.00 0.00 0.00 52 1025.5
20260508163123 17 55 4.8 9.7 0.00 0.00 0.00 52 1025.6
20260508162923 17 59 4.8 9.7 0.00 0.00 0.00 52 1025.5
20260508162723 17 35 3.2 9.7 0.00 0.00 0.00 52 1025.5
20260508162524 17 35 3.2 9.7 0.00 0.00 0.00 52 1025.6
20260508162323 17 7 4.8 8.0 0.00 0.00 0.00 52 1025.5
20260508162124 17 56 3.2 6.4 0.00 0.00 0.00 52 1025.6
20260508161923 17 83 3.2 8.0 0.00 0.00 0.00 51 1025.5
20260508161724 17 62 3.2 8.0 0.00 0.00 0.00 51 1025.5
20260508161522 17 49 3.2 8.0 0.00 0.00 0.00 51 1025.5
20260508161323 17 48 3.2 9.7 0.00 0.00 0.00 51 1025.5
20260508161123 17 42 3.2 9.7 0.00 0.00 0.00 51 1025.4
20260508160923 17 75 4.8 9.7 0.00 0.00 0.00 51 1025.4
20260508160723 17 97 4.8 9.7 0.00 0.00 0.00 51 1025.4
20260508160522 17 53 4.8 8.0 0.00 0.00 0.00 51 1025.3
20260508155931 17 68 3.2 9.7 0.00 0.00 0.00 50 1025.4
20260508155731 17 70 3.2 9.7 0.00 0.00 0.00 50 1025.3
20260508155531 17 66 3.2 11.3 0.00 0.00 0.00 50 1025.3
20260508155332 17 76 4.8 16.1 0.00 0.00 0.00 50 1025.3
20260508155131 17 56 3.2 16.1 0.00 0.00 0.00 50 1025.3
20260508154931 17 73 3.2 16.1 0.00 0.00 0.00 50 1025.3
20260508154731 17 69 4.8 16.1 0.00 0.00 0.00 50 1025.3
20260508154531 17 70 4.8 16.1 0.00 0.00 0.00 50 1025.3
20260508154330 17 73 3.2 8.0 0.00 0.00 0.00 50 1025.3
20260508154129 17 73 3.2 8.0 0.00 0.00 0.00 49 1025.3
20260508153929 17 65 3.2 8.0 0.00 0.00 0.00 49 1025.3
20260508153729 17 69 4.8 6.4 0.00 0.00 0.00 49 1025.2
20260508153528 17 77 3.2 6.4 0.00 0.00 0.00 49 1025.3
20260508153327 17 77 3.2 8.0 0.00 0.00 0.00 49 1025.3
20260508153159 17 65 3.2 8.0 0.00 0.00 0.00 49 1025.4
20260508152927 17 76 3.2 8.0 0.00 0.00 0.00 49 1025.4
20260508152708 17 99 3.2 8.0 0.00 0.00 0.00 48 1025.4
20260508152509 17 99 3.2 8.0 0.00 0.00 0.00 48 1025.4
20260508152308 17 76 4.8 8.0 0.00 0.00 0.00 48 1025.4
20260508152108 17 52 4.8 8.0 0.00 0.00 0.00 48 1025.4
20260508151907 17 52 4.8 8.0 0.00 0.00 0.00 48 1025.5
20260508151707 17 59 4.8 11.3 0.00 0.00 0.00 48 1025.5
20260508151506 17 77 4.8 11.3 0.00 0.00 0.00 48 1025.4
20260508151305 17 68 4.8 11.3 0.00 0.00 0.00 48 1025.4
20260508151105 17 93 4.8 11.3 0.00 0.00 0.00 48 1025.4
20260508150905 17 97 4.8 11.3 0.00 0.00 0.00 48 1025.5
20260508150702 17 65 4.8 9.7 0.00 0.00 0.00 48 1025.4
20260508150503 17 68 3.2 8.0 0.00 0.00 0.00 48 1025.5
20260508150302 17 66 4.8 9.7 0.00 0.00 0.00 48 1025.5
20260508145901 17 62 4.8 9.7 0.00 0.00 0.00 48 1025.4
20260508145702 17 69 4.8 9.7 0.00 0.00 0.00 48 1025.5
20260508145503 17 72 4.8 9.7 0.00 0.00 0.00 48 1025.4
20260508145306 17 77 6.4 8.0 0.00 0.00 0.00 48 1025.5
20260508145103 17 62 3.2 8.0 0.00 0.00 0.00 48 1025.6
20260508144903 17 56 4.8 8.0 0.00 0.00 0.00 48 1025.5
20260508144700 17 61 4.8 8.0 0.00 0.00 0.00 48 1025.5
20260508144500 17 69 3.2 8.0 0.00 0.00 0.00 48 1025.5
20260508144300 17 76 3.2 8.0 0.00 0.00 0.00 48 1025.6
20260508144101 17 75 4.8 8.0 0.00 0.00 0.00 48 1025.5
20260508143900 17 51 4.8 8.0 0.00 0.00 0.00 48 1025.6
20260508143701 17 66 4.8 8.0 0.00 0.00 0.00 48 1025.6
20260508143501 17 76 4.8 8.0 0.00 0.00 0.00 48 1025.7
20260508143300 17 69 3.2 8.0 0.00 0.00 0.00 49 1025.7
20260508143101 17 69 3.2 8.0 0.00 0.00 0.00 49 1025.6
20260508142900 17 20 3.2 8.0 0.00 0.00 0.00 49 1025.6
20260508142700 17 20 4.8 8.0 0.00 0.00 0.00 49 1025.7
20260508142459 17 29 4.8 9.7 0.00 0.00 0.00 49 1025.7
20260508142302 17 75 4.8 9.7 0.00 0.00 0.00 49 1025.6
20260508142100 17 52 4.8 9.7 0.00 0.00 0.00 49 1025.7
20260508141900 17 52 4.8 9.7 0.00 0.00 0.00 50 1025.7
20260508141700 17 37 4.8 9.7 0.00 0.00 0.00 50 1025.7
20260508141456 17 48 3.2 9.7 0.00 0.00 0.00 50 1025.7
20260508141256 17 49 4.8 9.7 0.00 0.00 0.00 50 1025.7
20260508141056 17 46 3.2 9.7 0.00 0.00 0.00 50 1025.8
20260508140855 17 38 4.8 9.7 0.00 0.00 0.00 50 1025.7
20260508140652 17 80 4.8 9.7 0.00 0.00 0.00 51 1025.7
20260508140450 17 58 4.8 9.7 0.00 0.00 0.00 51 1025.7
20260508140250 17 53 3.2 9.7 0.00 0.00 0.00 51 1025.7
20260508140050 17 58 4.8 11.3 0.00 0.00 0.00 51 1025.7
20260508135849 17 63 4.8 11.3 0.00 0.00 0.00 51 1025.6
20260508135650 17 52 6.4 11.3 0.00 0.00 0.00 51 1025.6
20260508135449 17 68 4.8 11.3 0.00 0.00 0.00 51 1025.6
20260508135248 17 63 6.4 11.3 0.00 0.00 0.00 52 1025.7
20260508135048 17 53 4.8 8.0 0.00 0.00 0.00 52 1025.6
20260508134848 17 63 4.8 8.0 0.00 0.00 0.00 52 1025.6
20260508134646 17 65 4.8 8.0 0.00 0.00 0.00 53 1025.6
20260508134446 17 62 4.8 8.0 0.00 0.00 0.00 53 1025.6
20260508134247 17 51 6.4 8.0 0.00 0.00 0.00 53 1025.6
20260508134046 17 76 3.2 8.0 0.00 0.00 0.00 54 1025.6
20260508133845 17 84 4.8 8.0 0.00 0.00 0.00 54 1025.6
20260508133644 17 69 3.2 8.0 0.00 0.00 0.00 54 1025.6
20260508133444 17 73 4.8 8.0 0.00 0.00 0.00 54 1025.6
20260508133245 17 72 3.2 8.0 0.00 0.00 0.00 54 1025.6
20260508133043 17 72 4.8 8.0 0.00 0.00 0.00 54 1025.6
20260508132840 17 70 3.2 8.0 0.00 0.00 0.00 55 1025.5
20260508132640 17 68 3.2 9.7 0.00 0.00 0.00 55 1025.6
20260508132439 17 68 1.6 9.7 0.00 0.00 0.00 55 1025.7
20260508132239 17 68 3.2 9.7 0.00 0.00 0.00 55 1025.7
20260508132038 17 63 4.8 9.7 0.00 0.00 0.00 56 1025.6
20260508131838 17 53 4.8 9.7 0.00 0.00 0.00 56 1025.6
20260508131637 17 61 3.2 6.4 0.00 0.00 0.00 56 1025.7
20260508131437 17 24 3.2 6.4 0.00 0.00 0.00 56 1025.6
20260508131237 17 24 3.2 6.4 0.00 0.00 0.00 56 1025.6
20260508131037 17 44 3.2 4.8 0.00 0.00 0.00 56 1025.7
20260508130836 17 38 1.6 8.0 0.00 0.00 0.00 56 1025.7
20260508130638 17 38 1.6 8.0 0.00 0.00 0.00 56 1025.6
20260508130435 17 38 3.2 8.0 0.00 0.00 0.00 56 1025.7
20260508130235 17 38 3.2 8.0 0.00 0.00 0.00 56 1025.6
20260508130033 17 38 4.8 8.0 0.00 0.00 0.00 56 1025.6
20260508125831 17 44 3.2 6.4 0.00 0.00 0.00 56 1025.6
20260508125631 17 93 3.2 6.4 0.00 0.00 0.00 56 1025.6
20260508125431 17 93 3.2 6.4 0.00 0.00 0.00 56 1025.6
20260508125230 17 94 1.6 6.4 0.00 0.00 0.00 56 1025.5
20260508125031 17 94 3.2 6.4 0.00 0.00 0.00 56 1025.5
20260508124831 17 94 3.2 6.4 0.00 0.00 0.00 56 1025.5
20260508124631 17 99 1.6 4.8 0.00 0.00 0.00 56 1025.6
20260508124432 17 99 3.2 4.8 0.00 0.00 0.00 56 1025.5
20260508124231 17 99 1.6 4.8 0.00 0.00 0.00 56 1025.5
20260508124030 17 99 3.2 4.8 0.00 0.00 0.00 56 1025.5
20260508123830 17 84 1.6 6.4 0.00 0.00 0.00 56 1025.5
20260508123631 17 65 0.0 6.4 0.00 0.00 0.00 56 1025.5
20260508123431 17 65 1.6 6.4 0.00 0.00 0.00 55 1025.5
20260508123231 17 65 3.2 6.4 0.00 0.00 0.00 55 1025.5
20260508123031 17 65 3.2 6.4 0.00 0.00 0.00 55 1025.5
20260508122831 17 38 3.2 6.4 0.00 0.00 0.00 55 1025.5
20260508122632 17 37 3.2 6.4 0.00 0.00 0.00 55 1025.6
20260508122431 17 70 3.2 6.4 0.00 0.00 0.00 55 1025.6
20260508122231 17 75 3.2 6.4 0.00 0.00 0.00 55 1025.5
20260508122031 17 59 3.2 4.8 0.00 0.00 0.00 55 1025.6
20260508121830 17 59 3.2 8.0 0.00 0.00 0.00 55 1025.5
20260508121631 17 53 1.6 8.0 0.00 0.00 0.00 55 1025.6
20260508121431 17 52 1.6 8.0 0.00 0.00 0.00 55 1025.5
20260508121231 17 83 3.2 8.0 0.00 0.00 0.00 55 1025.5
20260508121031 17 83 3.2 8.0 0.00 0.00 0.00 55 1025.5
20260508120832 17 56 3.2 9.7 0.00 0.00 0.00 55 1025.5
20260508120631 17 51 3.2 9.7 0.00 0.00 0.00 55 1025.4
20260508120431 17 51 3.2 9.7 0.00 0.00 0.00 55 1025.5
20260508120231 17 76 3.2 9.7 0.00 0.00 0.00 55 1025.4
20260508120032 17 56 3.2 9.7 0.00 0.00 0.00 55 1025.5
20260508115831 17 68 1.6 6.4 0.00 0.00 0.00 55 1025.5
20260508115631 17 68 1.6 6.4 0.00 0.00 0.00 55 1025.5
20260508115431 17 65 3.2 6.4 0.00 0.00 0.00 55 1025.5
20260508115231 17 62 3.2 6.4 0.00 0.00 0.00 55 1025.4
20260508115031 17 65 3.2 6.4 0.00 0.00 0.00 55 1025.4
20260508114831 17 68 3.2 6.4 0.00 0.00 0.00 55 1025.3
20260508114613 17 63 3.2 6.4 0.00 0.00 0.00 55 1025.4
20260508114412 17 49 3.2 6.4 0.00 0.00 0.00 55 1025.3
20260508114211 18 29 1.6 6.4 0.00 0.00 0.00 55 1025.4
20260508114011 18 29 3.2 6.4 0.00 0.00 0.00 55 1025.3
20260508113810 18 29 3.2 6.4 0.00 0.00 0.00 55 1025.3
20260508113610 18 25 3.2 6.4 0.00 0.00 0.00 55 1025.4
20260508113407 18 14 1.6 6.4 0.00 0.00 0.00 55 1025.3
20260508113206 18 6 3.2 4.8 0.00 0.00 0.00 55 1025.3
20260508113006 18 6 3.2 8.0 0.00 0.00 0.00 55 1025.4
20260508112805 18 6 3.2 8.0 0.00 0.00 0.00 55 1025.4
20260508112605 18 6 3.2 8.0 0.00 0.00 0.00 55 1025.4
20260508112403 18 4 3.2 8.0 0.00 0.00 0.00 55 1025.4
20260508112202 18 4 3.2 8.0 0.00 0.00 0.00 55 1025.5
20260508112002 18 72 1.6 4.8 0.00 0.00 0.00 55 1025.5
20260508111802 18 72 1.6 3.2 0.00 0.00 0.00 55 1025.4
20260508111602 18 72 1.6 3.2 0.00 0.00 0.00 54 1025.5
20260508111402 18 72 1.6 3.2 0.00 0.00 0.00 54 1025.5
20260508111202 18 72 0.0 3.2 0.00 0.00 0.00 54 1025.4
20260508111004 18 72 1.6 4.8 0.00 0.00 0.00 54 1025.5
20260508110801 18 72 1.6 4.8 0.00 0.00 0.00 54 1025.4
20260508110600 18 72 1.6 4.8 0.00 0.00 0.00 54 1025.5
20260508110400 18 70 1.6 4.8 0.00 0.00 0.00 54 1025.5
20260508110159 18 70 3.2 4.8 0.00 0.00 0.00 54 1025.4
20260508105959 18 72 1.6 4.8 0.00 0.00 0.00 53 1025.4
20260508105758 18 72 1.6 4.8 0.00 0.00 0.00 53 1025.5
20260508105556 18 72 3.2 4.8 0.00 0.00 0.00 53 1025.4
20260508105356 18 75 1.6 4.8 0.00 0.00 0.00 53 1025.5
20260508105155 18 75 3.2 4.8 0.00 0.00 0.00 53 1025.5
20260508104955 18 75 3.2 4.8 0.00 0.00 0.00 53 1025.5
20260508104755 18 75 1.6 4.8 0.00 0.00 0.00 53 1025.6
20260508104555 18 72 1.6 4.8 0.00 0.00 0.00 52 1025.5
20260508104355 18 66 0.0 3.2 0.00 0.00 0.00 52 1025.5
20260508104155 19 66 0.0 6.4 0.00 0.00 0.00 52 1025.5
20260508103955 19 66 1.6 6.4 0.00 0.00 0.00 52 1025.5
20260508103754 19 66 1.6 6.4 0.00 0.00 0.00 52 1025.4
20260508103554 19 66 1.6 6.4 0.00 0.00 0.00 52 1025.4
20260508103354 19 66 1.6 6.4 0.00 0.00 0.00 52 1025.4
20260508103154 19 90 3.2 6.4 0.00 0.00 0.00 52 1025.4
20260508102954 19 63 3.2 6.4 0.00 0.00 0.00 52 1025.4
20260508102754 19 62 3.2 6.4 0.00 0.00 0.00 52 1025.4
20260508102555 19 62 3.2 6.4 0.00 0.00 0.00 51 1025.4
20260508102354 19 66 3.2 6.4 0.00 0.00 0.00 51 1025.4
20260508102153 19 61 3.2 4.8 0.00 0.00 0.00 51 1025.5
20260508101954 19 58 3.2 4.8 0.00 0.00 0.00 51 1025.4
20260508101754 20 58 1.6 4.8 0.00 0.00 0.00 51 1025.4
20260508101553 20 58 1.6 4.8 0.00 0.00 0.00 51 1025.4
20260508101354 20 56 1.6 6.4 0.00 0.00 0.00 51 1025.3
20260508101154 20 56 3.2 6.4 0.00 0.00 0.00 51 1025.3
20260508100953 20 52 1.6 6.4 0.00 0.00 0.00 51 1025.3
20260508100752 20 48 1.6 6.4 0.00 0.00 0.00 50 1025.3
20260508100554 20 46 3.2 6.4 0.00 0.00 0.00 50 1025.3
20260508100353 20 62 3.2 6.4 0.00 0.00 0.00 50 1025.3
20260508100153 20 59 1.6 4.8 0.00 0.00 0.00 50 1025.3
20260508095954 20 59 3.2 4.8 0.00 0.00 0.00 50 1025.2
20260508095754 20 59 1.6 6.4 0.00 0.00 0.00 50 1025.3
20260508095554 20 59 3.2 9.7 0.00 0.00 0.00 50 1025.2
20260508095353 20 53 3.2 9.7 0.00 0.00 0.00 50 1025.3
20260508095153 20 51 1.6 9.7 0.00 0.00 0.00 50 1025.3
20260508094953 20 49 3.2 9.7 0.00 0.00 0.00 50 1025.2
20260508094753 20 84 3.2 9.7 0.00 0.00 0.00 50 1025.2
20260508094553 20 61 1.6 9.7 0.00 0.00 0.00 50 1025.2
20260508094353 20 61 1.6 9.7 0.00 0.00 0.00 49 1025.2
20260508094153 20 61 1.6 9.7 0.00 0.00 0.00 49 1025.2
20260508093953 20 52 1.6 9.7 0.00 0.00 0.00 49 1025.2
20260508093753 21 52 3.2 9.7 0.00 0.00 0.00 49 1025.2
20260508093552 21 79 1.6 6.4 0.00 0.00 0.00 49 1025.1
20260508093353 21 108 1.6 6.4 0.00 0.00 0.00 49 1025.1
20260508093153 21 108 3.2 9.7 0.00 0.00 0.00 49 1025.0
20260508092953 21 108 1.6 9.7 0.00 0.00 0.00 49 1025.0
20260508092753 21 101 1.6 9.7 0.00 0.00 0.00 48 1025.0
20260508092552 21 99 3.2 9.7 0.00 0.00 0.00 48 1025.0
20260508092353 21 59 3.2 9.7 0.00 0.00 0.00 48 1025.0
20260508092153 21 75 3.2 6.4 0.00 0.00 0.00 48 1024.9
20260508091953 21 82 4.8 9.7 0.00 0.00 0.00 48 1024.9
20260508091753 21 82 3.2 11.3 0.00 0.00 0.00 48 1024.8
20260508091550 21 82 3.2 11.3 0.00 0.00 0.00 48 1024.9
20260508091349 21 82 3.2 11.3 0.00 0.00 0.00 48 1024.9
20260508091150 21 82 3.2 11.3 0.00 0.00 0.00 48 1025.0
20260508090950 21 107 4.8 11.3 0.00 0.00 0.00 48 1024.9
20260508090750 21 77 1.6 8.0 0.00 0.00 0.00 48 1024.9
20260508090549 21 76 1.6 8.0 0.00 0.00 0.00 48 1024.8
20260508090348 22 115 3.2 8.0 0.00 0.00 0.00 47 1024.8
20260508090147 22 89 3.2 8.0 0.00 0.00 0.00 47 1024.7
20260508085947 22 96 3.2 6.4 0.00 0.00 0.00 47 1024.8
20260508085747 22 121 1.6 6.4 0.00 0.00 0.00 47 1024.7
20260508085547 22 80 1.6 6.4 0.00 0.00 0.00 46 1024.8
20260508085347 22 80 3.2 8.0 0.00 0.00 0.00 46 1024.6
20260508085147 22 72 3.2 9.7 0.00 0.00 0.00 46 1024.7
20260508084947 22 80 3.2 9.7 0.00 0.00 0.00 46 1024.7
20260508084748 22 121 4.8 9.7 0.00 0.00 0.00 46 1024.7
20260508084547 22 70 4.8 9.7 0.00 0.00 0.00 46 1024.6
20260508084347 22 76 4.8 9.7 0.00 0.00 0.00 46 1024.6
20260508084148 22 66 3.2 6.4 0.00 0.00 0.00 46 1024.7
20260508083948 22 66 3.2 6.4 0.00 0.00 0.00 46 1024.6
20260508083747 22 53 1.6 6.4 0.00 0.00 0.00 46 1024.6
20260508083547 22 49 3.2 6.4 0.00 0.00 0.00 46 1024.6
20260508083336 22 80 1.6 9.7 0.00 0.00 0.00 46 1024.6
20260508083136 22 80 1.6 9.7 0.00 0.00 0.00 46 1024.5
20260508082936 22 80 3.2 14.5 0.00 0.00 0.00 46 1024.6
20260508082734 22 104 3.2 14.5 0.00 0.00 0.00 45 1024.6
20260508082534 22 82 3.2 14.5 0.00 0.00 0.00 45 1024.5
20260508082334 22 90 1.6 14.5 0.00 0.00 0.00 45 1024.6
20260508082133 22 86 3.2 14.5 0.00 0.00 0.00 44 1024.7
20260508081933 22 69 4.8 9.7 0.00 0.00 0.00 44 1024.7
20260508081732 22 68 4.8 9.7 0.00 0.00 0.00 44 1024.7
20260508081532 22 59 4.8 8.0 0.00 0.00 0.00 43 1024.6
20260508081333 23 66 3.2 11.3 0.00 0.00 0.00 43 1024.7
20260508081133 23 66 3.2 11.3 0.00 0.00 0.00 43 1024.6
20260508080933 23 66 3.2 11.3 0.00 0.00 0.00 43 1024.7
20260508080733 23 66 3.2 11.3 0.00 0.00 0.00 43 1024.7
20260508080532 23 68 4.8 11.3 0.00 0.00 0.00 43 1024.7
20260508080332 23 61 4.8 9.7 0.00 0.00 0.00 43 1024.7
20260508080131 23 59 3.2 9.7 0.00 0.00 0.00 43 1024.7
20260508075931 23 61 4.8 9.7 0.00 0.00 0.00 43 1024.7
20260508075731 23 49 4.8 9.7 0.00 0.00 0.00 43 1024.6
20260508075531 23 89 3.2 8.0 0.00 0.00 0.00 42 1024.6
20260508075331 23 123 3.2 8.0 0.00 0.00 0.00 43 1024.6
20260508075132 23 93 4.8 8.0 0.00 0.00 0.00 42 1024.6
20260508074932 23 90 3.2 9.7 0.00 0.00 0.00 42 1024.6
20260508074730 23 80 4.8 9.7 0.00 0.00 0.00 42 1024.6
20260508074530 24 107 1.6 9.7 0.00 0.00 0.00 42 1024.6
20260508074331 24 107 4.8 9.7 0.00 0.00 0.00 42 1024.7
20260508074131 24 121 3.2 9.7 0.00 0.00 0.00 42 1024.7
20260508073931 24 131 3.2 9.7 0.00 0.00 0.00 42 1024.7
20260508073731 24 108 3.2 9.7 0.00 0.00 0.00 42 1024.6
20260508073529 24 63 4.8 9.7 0.00 0.00 0.00 42 1024.7
20260508073329 24 82 6.4 9.7 0.00 0.00 0.00 41 1024.7
20260508073128 25 38 4.8 9.7 0.00 0.00 0.00 42 1024.6
20260508072928 24 73 3.2 9.7 0.00 0.00 0.00 41 1024.7
20260508072722 24 73 3.2 9.7 0.00 0.00 0.00 42 1024.7
20260508072522 24 72 1.6 9.7 0.00 0.00 0.00 42 1024.6
20260508072321 24 72 3.2 9.7 0.00 0.00 0.00 41 1024.6
20260508072121 24 89 4.8 9.7 0.00 0.00 0.00 41 1024.6
20260508071920 25 68 6.4 9.7 0.00 0.00 0.00 41 1024.7
20260508071719 25 83 4.8 9.7 0.00 0.00 0.00 41 1024.6
20260508071519 25 61 4.8 9.7 0.00 0.00 0.00 42 1024.6
20260508071318 25 62 3.2 9.7 0.00 0.00 0.00 42 1024.5
20260508071119 24 55 4.8 9.7 0.00 0.00 0.00 42 1024.5
20260508070918 24 87 3.2 9.7 0.00 0.00 0.00 42 1024.6
20260508070717 24 123 4.8 9.7 0.00 0.00 0.00 42 1024.5
20260508070517 24 99 3.2 9.7 0.00 0.00 0.00 42 1024.6
20260508070317 24 59 3.2 9.7 0.00 0.00 0.00 42 1024.6
20260508070116 25 58 4.8 16.1 0.00 0.00 0.00 42 1024.6
20260508065916 25 63 4.8 16.1 0.00 0.00 0.00 41 1024.6
20260508065715 25 66 3.2 16.1 0.00 0.00 0.00 41 1024.6
20260508065514 25 76 4.8 16.1 0.00 0.00 0.00 41 1024.6
20260508065315 25 108 6.4 16.1 0.00 0.00 0.00 41 1024.7
20260508065114 25 68 4.8 8.0 0.00 0.00 0.00 41 1024.7
20260508064910 25 72 3.2 8.0 0.00 0.00 0.00 41 1024.7
20260508064710 25 124 3.2 11.3 0.00 0.00 0.00 41 1024.7
20260508064510 25 73 4.8 11.3 0.00 0.00 0.00 41 1024.7
20260508064309 25 107 3.2 11.3 0.00 0.00 0.00 41 1024.7
20260508064109 25 115 4.8 11.3 0.00 0.00 0.00 41 1024.8
20260508063908 25 130 4.8 11.3 0.00 0.00 0.00 42 1024.7
20260508063708 25 83 3.2 11.3 0.00 0.00 0.00 42 1024.8
20260508063508 25 83 3.2 14.5 0.00 0.00 0.00 42 1024.8
20260508063307 25 92 3.2 14.5 0.00 0.00 0.00 42 1024.8
20260508063106 25 63 6.4 14.5 0.00 0.00 0.00 41 1024.9
20260508062906 25 55 6.4 14.5 0.00 0.00 0.00 41 1024.8
20260508062707 25 25 6.4 14.5 0.00 0.00 0.00 41 1024.8
20260508062504 25 63 4.8 8.0 0.00 0.00 0.00 42 1024.8
20260508062306 25 128 3.2 8.0 0.00 0.00 0.00 42 1024.8
20260508062104 25 121 3.2 9.7 0.00 0.00 0.00 44 1024.9
20260508061904 25 130 3.2 9.7 0.00 0.00 0.00 44 1024.9
20260508061704 25 59 1.6 9.7 0.00 0.00 0.00 43 1024.9
20260508061504 25 93 4.8 11.3 0.00 0.00 0.00 42 1024.9
20260508061304 25 94 4.8 11.3 0.00 0.00 0.00 43 1025.1
20260508061105 25 55 4.8 11.3 0.00 0.00 0.00 42 1025.0
20260508060904 25 65 6.4 11.3 0.00 0.00 0.00 42 1025.0
20260508060704 25 356 6.4 11.3 0.00 0.00 0.00 42 1025.0
20260508060504 25 48 6.4 9.7 0.00 0.00 0.00 42 1025.1
20260508060302 25 55 3.2 8.0 0.00 0.00 0.00 43 1025.2
20260508055902 24 61 3.2 9.7 0.00 0.00 0.00 44 1025.2
20260508055703 24 34 3.2 9.7 0.00 0.00 0.00 43 1025.3
20260508055502 24 45 4.8 9.7 0.00 0.00 0.00 43 1025.3
20260508055306 24 350 4.8 14.5 0.00 0.00 0.00 42 1025.3
20260508055102 24 58 6.4 14.5 0.00 0.00 0.00 42 1025.4
20260508054902 24 59 4.8 14.5 0.00 0.00 0.00 42 1025.4
20260508054702 24 66 6.4 14.5 0.00 0.00 0.00 42 1025.4
20260508054503 24 76 6.4 14.5 0.00 0.00 0.00 42 1025.4
20260508054303 25 58 4.8 9.7 0.00 0.00 0.00 42 1025.4
20260508054103 25 68 4.8 11.3 0.00 0.00 0.00 42 1025.5
20260508053902 25 110 4.8 11.3 0.00 0.00 0.00 43 1025.5
20260508053702 25 92 4.8 11.3 0.00 0.00 0.00 43 1025.5
20260508053502 25 104 3.2 11.3 0.00 0.00 0.00 42 1025.4
20260508053302 24 52 4.8 11.3 0.00 0.00 0.00 43 1025.5
20260508053107 24 87 4.8 11.3 0.00 0.00 0.00 43 1025.5
20260508052935 24 46 4.8 9.7 0.00 0.00 0.00 44 1025.5
20260508052702 24 66 3.2 11.3 0.00 0.00 0.00 45 1025.5
20260508052502 24 14 3.2 11.3 0.00 0.00 0.00 44 1025.6
20260508052306 24 79 4.8 11.3 0.00 0.00 0.00 44 1025.5
20260508052116 24 73 6.4 11.3 0.00 0.00 0.00 44 1025.5
20260508051902 24 77 4.8 11.3 0.00 0.00 0.00 44 1025.6
20260508051702 24 121 6.4 11.3 0.00 0.00 0.00 45 1025.7
20260508051514 24 76 3.2 11.3 0.00 0.00 0.00 45 1025.7
20260508051302 24 90 3.2 11.3 0.00 0.00 0.00 45 1025.8
20260508051106 24 20 6.4 11.3 0.00 0.00 0.00 45 1025.8
20260508050902 24 51 4.8 8.0 0.00 0.00 0.00 45 1025.8
20260508050717 24 79 4.8 9.7 0.00 0.00 0.00 45 1025.7
20260508050503 24 44 3.2 9.7 0.00 0.00 0.00 46 1025.8
20260508050302 23 75 3.2 9.7 0.00 0.00 0.00 46 1025.8
20260508045902 23 32 6.4 14.5 0.00 0.00 0.00 45 1025.8
20260508045702 23 97 4.8 14.5 0.00 0.00 0.00 46 1025.9
20260508045502 23 65 4.8 14.5 0.00 0.00 0.00 47 1025.9
20260508045306 23 62 4.8 14.5 0.00 0.00 0.00 47 1025.9
20260508045101 23 35 6.4 14.5 0.00 0.00 0.00 48 1025.9
20260508044901 23 52 4.8 11.3 0.00 0.00 0.00 48 1026.0
20260508044702 23 62 3.2 11.3 0.00 0.00 0.00 48 1026.0
20260508044502 23 29 4.8 11.3 0.00 0.00 0.00 49 1026.0
20260508044303 23 86 3.2 11.3 0.00 0.00 0.00 49 1026.0
20260508044102 23 87 3.2 11.3 0.00 0.00 0.00 49 1026.1
20260508043857 23 162 3.2 11.3 0.00 0.00 0.00 49 1026.2
20260508043656 23 93 6.4 11.3 0.00 0.00 0.00 49 1026.2
20260508043456 23 106 4.8 11.3 0.00 0.00 0.00 48 1026.2
20260508043256 23 66 4.8 14.5 0.00 0.00 0.00 49 1026.3
20260508043055 23 132 4.8 14.5 0.00 0.00 0.00 50 1026.3
20260508042854 22 124 4.8 14.5 0.00 0.00 0.00 50 1026.3
20260508042655 22 53 4.8 14.5 0.00 0.00 0.00 50 1026.4
20260508042454 22 63 8.0 17.7 0.00 0.00 0.00 49 1026.5
20260508042253 22 62 6.4 17.7 0.00 0.00 0.00 50 1026.5
20260508042054 22 38 8.0 17.7 0.00 0.00 0.00 50 1026.7
20260508041853 22 55 6.4 17.7 0.00 0.00 0.00 50 1026.6
20260508041652 22 41 8.0 17.7 0.00 0.00 0.00 50 1026.6
20260508041452 22 52 4.8 14.5 0.00 0.00 0.00 51 1026.7
20260508041251 22 46 6.4 14.5 0.00 0.00 0.00 50 1026.8
20260508041051 23 44 6.4 11.3 0.00 0.00 0.00 50 1026.8
20260508040851 22 75 6.4 11.3 0.00 0.00 0.00 51 1026.8
20260508040650 22 48 3.2 9.7 0.00 0.00 0.00 51 1026.9
20260508040450 22 51 4.8 9.7 0.00 0.00 0.00 51 1026.8
20260508040249 22 41 4.8 9.7 0.00 0.00 0.00 51 1026.8
20260508040046 22 69 4.8 9.7 0.00 0.00 0.00 52 1027.0
20260508035845 22 53 6.4 9.7 0.00 0.00 0.00 52 1027.0
20260508035646 22 75 6.4 11.3 0.00 0.00 0.00 52 1026.9
20260508035444 22 97 6.4 14.5 0.00 0.00 0.00 52 1027.1
20260508035244 22 66 4.8 14.5 0.00 0.00 0.00 53 1027.1
20260508035044 22 61 3.2 16.1 0.00 0.00 0.00 53 1027.1
20260508034844 22 63 6.4 16.1 0.00 0.00 0.00 52 1027.2
20260508034642 22 350 4.8 16.1 0.00 0.00 0.00 52 1027.2
20260508034443 22 72 8.0 16.1 0.00 0.00 0.00 51 1027.3
20260508034241 21 68 6.4 17.7 0.00 0.00 0.00 52 1027.4
20260508034041 21 27 8.0 17.7 0.00 0.00 0.00 52 1027.5
20260508033841 21 61 8.0 17.7 0.00 0.00 0.00 52 1027.4
20260508033640 21 68 9.7 17.7 0.00 0.00 0.00 51 1027.5
20260508033439 21 68 9.7 17.7 0.00 0.00 0.00 52 1027.6
20260508033238 21 44 6.4 16.1 0.00 0.00 0.00 52 1027.6
20260508033038 21 72 4.8 16.1 0.00 0.00 0.00 52 1027.6
20260508032839 21 52 8.0 16.1 0.00 0.00 0.00 51 1027.7
20260508032639 21 58 8.0 16.1 0.00 0.00 0.00 52 1027.7
20260508032438 21 80 9.7 16.1 0.00 0.00 0.00 52 1027.8
20260508032238 21 77 6.4 16.1 0.00 0.00 0.00 52 1027.8
20260508032038 21 52 9.7 16.1 0.00 0.00 0.00 52 1027.7
20260508031838 21 59 6.4 16.1 0.00 0.00 0.00 52 1027.8
20260508031639 21 73 8.0 16.1 0.00 0.00 0.00 51 1027.9
20260508031439 21 46 6.4 16.1 0.00 0.00 0.00 52 1028.0
20260508031239 21 123 8.0 20.9 0.00 0.00 0.00 51 1027.9
20260508031038 21 41 8.0 20.9 0.00 0.00 0.00 52 1027.9
20260508030838 21 63 4.8 20.9 0.00 0.00 0.00 53 1028.0
20260508030638 21 75 6.4 20.9 0.00 0.00 0.00 53 1028.0
20260508030438 21 56 9.7 20.9 0.00 0.00 0.00 53 1027.9
20260508030238 21 110 6.4 17.7 0.00 0.00 0.00 53 1028.0
20260508030039 21 53 6.4 17.7 0.00 0.00 0.00 53 1028.1
20260508025838 21 75 8.0 19.3 0.00 0.00 0.00 53 1028.0
20260508025638 21 58 8.0 19.3 0.00 0.00 0.00 53 1028.0
20260508025437 21 121 9.7 19.3 0.00 0.00 0.00 53 1028.0
20260508025234 21 51 8.0 19.3 0.00 0.00 0.00 53 1028.0
20260508025033 21 4 6.4 19.3 0.00 0.00 0.00 55 1028.2
20260508024833 21 76 4.8 11.3 0.00 0.00 0.00 55 1028.2
20260508024633 21 45 4.8 14.5 0.00 0.00 0.00 55 1028.2
20260508024433 21 18 4.8 14.5 0.00 0.00 0.00 56 1028.3
20260508024233 20 53 3.2 16.1 0.00 0.00 0.00 56 1028.2
20260508024033 20 52 8.0 16.1 0.00 0.00 0.00 55 1028.3
20260508023833 20 56 8.0 16.1 0.00 0.00 0.00 55 1028.3
20260508023631 20 53 8.0 16.1 0.00 0.00 0.00 55 1028.4
20260508023430 20 62 6.4 16.1 0.00 0.00 0.00 55 1028.4
20260508023231 20 59 6.4 14.5 0.00 0.00 0.00 55 1028.4
20260508023029 20 55 6.4 14.5 0.00 0.00 0.00 55 1028.4
20260508022828 20 68 6.4 14.5 0.00 0.00 0.00 55 1028.4
20260508022628 20 66 6.4 14.5 0.00 0.00 0.00 55 1028.5
20260508022428 20 59 6.4 14.5 0.00 0.00 0.00 56 1028.5
20260508022227 20 61 4.8 14.5 0.00 0.00 0.00 56 1028.4
20260508022027 20 58 8.0 14.5 0.00 0.00 0.00 56 1028.5
20260508021827 20 68 3.2 11.3 0.00 0.00 0.00 57 1028.4
20260508021626 20 51 4.8 11.3 0.00 0.00 0.00 57 1028.5
20260508021425 20 62 6.4 17.7 0.00 0.00 0.00 57 1028.6
20260508021225 20 84 6.4 17.7 0.00 0.00 0.00 57 1028.5
20260508021024 20 70 4.8 17.7 0.00 0.00 0.00 58 1028.5
20260508020825 20 68 4.8 17.7 0.00 0.00 0.00 58 1028.6
20260508020624 20 66 8.0 22.5 0.00 0.00 0.00 57 1028.6
20260508020423 19 77 8.0 22.5 0.00 0.00 0.00 57 1028.6
20260508020223 19 48 9.7 22.5 0.00 0.00 0.00 57 1028.5
20260508020021 19 61 9.7 22.5 0.00 0.00 0.00 57 1028.5
20260508015801 19 59 9.7 22.5 0.00 0.00 0.00 57 1028.6
20260508015601 19 48 8.0 22.5 0.00 0.00 0.00 57 1028.7
20260508015400 19 69 8.0 17.7 0.00 0.00 0.00 57 1028.7
20260508015200 19 63 9.7 17.7 0.00 0.00 0.00 57 1028.7
20260508014959 19 59 9.7 17.7 0.00 0.00 0.00 57 1028.7
20260508014759 20 83 9.7 17.7 0.00 0.00 0.00 57 1028.7
20260508014559 20 8 9.7 17.7 0.00 0.00 0.00 57 1028.8
20260508014358 19 59 6.4 17.7 0.00 0.00 0.00 57 1028.7
20260508014158 19 42 6.4 17.7 0.00 0.00 0.00 58 1028.7
20260508013957 19 75 8.0 16.1 0.00 0.00 0.00 58 1028.8
20260508013757 19 46 6.4 16.1 0.00 0.00 0.00 57 1028.8